This is the latest recevied weather packets stored in our database for station/object HB9FHL-13. If no packets are shown the sender has not sent any weather packets the latest 10 day(s).
| Time | Temp. | Humidity | Pressure | Rain* | Wind** | Luminosity | Snow |
|---|---|---|---|---|---|---|---|
| 1777803819 | 18.33° C | - | 1014.9 hPa | 0 mm | - | - | - |
| 1777803518 | 18.33° C | - | 1016.8 hPa | 0 mm | - | - | - |
| 1777803218 | 18.89° C | - | 1018.1 hPa | 0 mm | - | - | - |
| 1777802916 | 18.33° C | - | 1020.3 hPa | 0 mm | - | - | - |
| 1777802616 | 18.33° C | - | 1018.8 hPa | 0 mm | - | - | - |
| 1777802314 | 18.33° C | - | 1021 hPa | 0 mm | - | - | - |
| 1777802014 | 18.33° C | - | 1016.2 hPa | 0 mm | - | - | - |
| 1777801713 | 18.33° C | - | 1017.2 hPa | 0 mm | - | - | - |
| 1777801412 | 18.33° C | - | 1018.9 hPa | 0 mm | - | - | - |
| 1777801112 | 18.33° C | - | 1021.4 hPa | 0 mm | - | - | - |
| 1777800811 | 18.89° C | - | 1012.4 hPa | 0 mm | - | - | - |
| 1777800511 | 18.89° C | - | 1019.1 hPa | 0 mm | - | - | - |
| 1777800210 | 18.33° C | - | 1017.5 hPa | 0 mm | - | - | - |
| 1777799910 | 18.89° C | - | 1015.4 hPa | 0 mm | - | - | - |
| 1777799609 | 18.33° C | - | 1012.2 hPa | 0 mm | - | - | - |
| 1777799309 | 18.89° C | - | 1013.7 hPa | 0 mm | - | - | - |
| 1777799008 | 17.22° C | - | 1017.2 hPa | 0 mm | - | - | - |
| 1777798706 | 18.33° C | - | 1016.4 hPa | 0 mm | - | - | - |
| 1777798406 | 17.78° C | - | 1017.3 hPa | 0 mm | - | - | - |
| 1777798105 | 18.33° C | - | 1015.7 hPa | 0 mm | - | - | - |
| 1777797805 | 18.33° C | - | 1017.6 hPa | 0 mm | - | - | - |
| 1777797504 | 17.22° C | - | 1017.3 hPa | 0 mm | - | - | - |
| 1777797204 | 17.22° C | - | 1017.4 hPa | 0 mm | - | - | - |
| 1777796600 | 17.78° C | - | 1016.5 hPa | 0 mm | - | - | - |
| 1777796304 | 17.78° C | - | 1015.6 hPa | 0 mm | - | - | - |
* Rain since midnight (hover to see other rain measurements)
** Current wind speed in m/s (hover to see current wind gust speed)